Regional Weather Roundup
Issued by NWS Upton, NY

Current Version | Previous Version | Text Only | Print | Product List | Glossary On
Versions: 1 2 3 4 5 6 7 8 9 10 11 12 13 14 15 16 17 18 19 20 21 22 23 24 25 26 27 28 29 30 31 32 33 34 35 36 37 38 39 40 41 42 43 44 45 46 47 48 49 50
000
ASUS41 KOKX 271609
RWROKX

REGIONAL WEATHER ROUNDUP
NATIONAL WEATHER SERVICE NEW YORK NY
1200 PM EDT THU APR 27 2017

NOTE: "FAIR" INDICATES FEW OR NO CLOUDS BELOW 12,000 FEET WITH NO
SIGNIFICANT WEATHER AND/OR OBSTRUCTIONS TO VISIBILITY.

NYZ071-072-176-178-NJZ106-104-271700-
NEW YORK CITY METRO AREA

CITY           SKY/WX    TMP DP  RH WIND       PRES   REMARKS
Central Park   CLOUDY    67  58  72 VRB5      29.94S
Wall St Helipt CLOUDY    64  57  77 W8        29.93R
Bronx Bot Gard   N/A     66  55  68 S6        29.94R
LaGuardia APRT CLOUDY    67  56  67 S8        29.90F
Kennedy INTL   PTSUNNY   64  59  83 S9        29.93S
Breezy Point     N/A     57 N/A N/A S7          N/A
Newark/Liberty PTSUNNY   66  57  72 VRB6      29.91R
Teterboro      CLOUDY    68  58  70 VRB6      29.90R
$$

NYZ177-179-078>081-271700-
LONG ISLAND NEW YORK

CITY           SKY/WX    TMP DP  RH WIND       PRES   REMARKS
Jones Beach      N/A     57 N/A N/A S3          N/A
Matinecock PT  NOT AVBL
Farmingdale    CLOUDY    64  56  75 S5        29.92S
MacArthur/ISP  CLOUDY    66  58  75 CALM      29.91F
Shirley        CLOUDY    63  59  87 SW5       29.92F
Mt Sinai Harb    N/A     57 N/A N/A NE5         N/A
Westhampton    CLOUDY    62  57  83 VRB3      29.94F
East Hampton   CLOUDY    61  58  88 S5        29.92F
Montauk        NOT AVBL
$$

NYZ052-065-067-271700-
HUDSON VALLEY

CITY           SKY/WX    TMP DP  RH WIND       PRES   REMARKS
White Plains   LGT RAIN  63  57  81 VRB5      29.91F FOG
Larchmont Harb   N/A     57 N/A N/A MISG        N/A
Croton O-T Hud   N/A     63 N/A N/A S2          N/A
Newburgh       CLOUDY    61  59  94 CALM      29.92S
Montgomery     CLOUDY    65  57  75 VRB5      29.89S
Poughkeepsie   CLOUDY    64  57  78 S3        29.89F
Albany         CLOUDY    66  56  70 S14       29.88F
$$

NJZ001-105-106-008-010-013-015-019>022-104-271700-
NEW JERSEY

CITY           SKY/WX    TMP DP  RH WIND       PRES   REMARKS
Newark/Liberty PTSUNNY   66  57  72 VRB6      29.91R
Teterboro      CLOUDY    68  58  70 VRB6      29.90R
Caldwell       CLOUDY    65  57  75 SE5       29.91R
Somerville     CLOUDY    69  60  73 VRB5      29.88S
Linden         CLOUDY    67  56  68 CALM      29.91S
Sussex         CLOUDY    67  59  75 S3        29.90S
Andover          N/A     67  57  70 VRB5      29.90R
Trenton        CLOUDY    68  59  73 S8        29.89S
Millville      SUNNY     72  65  78 S7        29.89S
Atlantic City  CLOUDY    68  57  68 S12       29.92R
Wrightstown    CLOUDY    71  61  70 SE8       29.88S
Toms River     CLOUDY    70  60  70 S9        29.92R
Belmar         CLOUDY    66  57  72 SE8       29.93R
$$

PAZ047>061-062-071-271700-
EASTERN PENNSYLVANIA

CITY           SKY/WX    TMP DP  RH WIND       PRES   REMARKS
Philadelphia   PTSUNNY   74  61  63 CALM      29.88F
Allentown      CLOUDY    71  59  65 VRB6      29.89S
Scranton       CLOUDY    70  59  68 S10       29.86S
$$

CTZ002-004>006-009-010-012-RIZ004-006-007-MAZ004-011-015-271700-
SOUTHERN NEW ENGLAND
 IN CT

CITY           SKY/WX    TMP DP  RH WIND       PRES   REMARKS
Bradley INTL   CLOUDY    63  55  75 S6        29.92S
Hartford       CLOUDY    63  56  78 CALM      29.91F
Danbury        CLOUDY    61  57  87 VRB6      29.92F
Wtrbury/Oxford CLOUDY    61  55  82 S5        29.93F FOG
Bridgeport     CLOUDY    62  58  86 S5        29.92F
Meriden        CLOUDY    65  57  75 S7        29.91F
New Haven      CLOUDY    60  58  92 S6        29.92F
Chester        CLOUDY    61  57  88 S6        29.93S
Groton         CLOUDY    57  55  93 S5        29.93S FOG
Wilimantic     CLOUDY    64  57  78 S7        29.93S

 IN RI

CITY           SKY/WX    TMP DP  RH WIND       PRES   REMARKS
Providence     PTSUNNY   62  57  83 E3        29.93S
Block Island   CLOUDY    58  56  93 SW7       29.95S
Westerly       CLOUDY    62  57  83 S8        29.94S
 IN MA

CITY           SKY/WX    TMP DP  RH WIND       PRES   REMARKS
Boston         CLOUDY    57  54  89 E6        29.94S
Worcester      CLOUDY    59  54  83 SW3       29.93S
Westfield      CLOUDY    63  56  78 VRB3      29.91S
Provincetown   CLOUDY    48  47  96 N5        29.95R
Nantucket      CLOUDY    56  53  90 N5        29.93S FOG
$$

ANZ330-335-338-340-345-350-353-355-271700-
COASTAL MARINE OBSERVATIONS


STATION/POSITION TIME  SKY/WX   TEMP    WIND        PRES    VSBY  WAVE
                                AIR SEA DIR/SP/G                  HT/PER
                 (UTC)          (F)     (DEG/KT/KT) (MB)    (MI)  (FT/S)
NY HARB ENTRANCE 1450            52 50  170/  2/  4 1013.4          5/11
20 S FIRE ISLAND 1550            52 50  140/  4/  6 1013.1          5/11
GREAT SOUTH BAY  1530            55 58   CALM  /  2   N/A
23 SSW MONTAUK P 1450            49 46              1014.4          6/ 8
15 E BARNEGAT LI 1530               51                N/A           6/10
HUDSON CANYON    1450            52 51  150/  4/  4 1014.1          7/10
KINGS POINT      1548            62 49  200/  4/  4 1012.8
EXECUTION ROCKS  NOT AVBL
CENTRAL LI SOUND NOT AVBL
EASTERN LI SOUND NOT AVBL
ROBBINS REEF     1548            60     170/ 14/ 15 1013.4
$$


>>>>>>>>>>>>>>>>>>>>>>>>>>>> KEY <<<<<<<<<<<<<<<<<<<<<<<<<<<
>                                                          <
>     SKY/WX - Sky Condition/Present Weather               <
>     TMP    - Temperature in Fahrenheit                   <
>     DP     - Dew Point in Fahrenheit                     <
>     RH     - Relative Humidity in Percent                <
>     WIND   - Direction (from) and Speed in MPH           <
>     PRES   - Mean Sea Level Pressure (inches of Hg)      <
>     WCI    - Wind Chill Index                            <
>     VSB    - VISIBILITY IN MILES                         <
>     HX     - HEAT INDEX                                  <
>     TC     - TEMPERATURE IN CELSIUS                      <
>     VRB    - VARIABLE WIND DIRECTION                     <
>                                                          <
>>>>>>>>>>>>>>>>>>>>>>>>>>>> KEY <<<<<<<<<<<<<<<<<<<<<<<<<<<



USA.gov is the U.S. government's official web portal to all federal, state and local government web resources and services.